PROMETHEUS 2-6 (44386 NORAD) Tracking and Keplerian Element Data

This shows tracking and keplerian element data for the satellite.

Feedback or suggestion? Click here.




ElementValue
Catalog44386
NamePROMETHEUS 2-6
Epoch Orbit371
Epoch Day209.71337298
Epoch Year2019
RAAN343.3896
Inclination28.5284
Eccentricity0.0387715
Argument of Perigee98.877
Mean Anonmoly265.5915
Mean Motion14.9799879
Decay Rate0.00016401
L11 44386U 19036AB 19209.71337298 .00016401 00000-0 25076-3 0 9990
L22 44386 28.5284 343.3896 0387715 98.8770 265.5915 14.97998790 3719

Live tracking and technical data element details for PROMETHEUS 2-6 (NORAD 44386). PROMETHEUS 2-6 can be tracked NOW for your location showing map with azimuth and elevation plus other details from your city location.

Track the satellite on the map from your city or location and see movement details for azimuth, elevation, latitude, longitude, range, height, and movement on the map or in text.







IsCatalogInMostPopularTable: catalog: 44386, numindb: 13
Update: records affected: 1



GetName: 44386 PROMETHEUS 2-6

Hit Count: updated at: Tue, 22 Oct 2019 23:52:34 GMT